Tracking 31030 objects as of 16-Jul-2025
HD Live streaming from Space Station
objects crossing your sky now

CZ-6A DEB

Track CZ-6A DEB now!
10-day predictions


NORAD ID: 54331
Int'l Code: 2022-151CA
Perigee: 829.4 km
Apogee: 1,005.0 km
Inclination: 98.9 °
Period: 103.2 minutes
Semi major axis: 7288 km
RCS: Unknown
Launch date: November 11, 2022
Source: People's Republic of China (PRC)
Launch site: Taiyaun Space Center, China (TSC)

Note: This is SATELLITE DEBRIS
Your satellite tracking list
Your tracking list is empty




NASA's NSSDC Master Catalog

Two Line Element Set (TLE):
1 54331U 22151CA  25196.92343999  .00000534  00000-0  40172-3 0  9997
2 54331  98.8643 173.8618 0120445 283.1164  75.6580 13.95309980135525
Source of the keplerian elements: AFSPC